Regional Weather Roundup
Issued by NWS Wilmington, NC

Home | Current Version | Previous Version | Text Only | Print | Product List | Glossary On
Versions: 1 2 3 4 5 6 7 8 9 10 11 12 13 14 15 16 17 18 19 20 21 22 23 24 25 26 27 28 29 30 31 32 33 34 35 36 37 38 39 40 41 42 43 44 45 46 47 48 49 50
000
ASUS42 KILM 060910
RWRILM
RWRILM
REGIONAL HOURLY WEATHER ROUNDUP
NATIONAL WEATHER SERVICE WILMINGTON NC
400 AM EST FRI MAR 06 2015

NOTE: "FAIR" INDICATES FEW OR NO CLOUDS BELOW 12,000 FEET WITH NO
SIGNIFICANT WEATHER AND/OR OBSTRUCTIONS TO VISIBILITY.

...............WFO WILMINGTON COUNTY WARNING AREA...............

......COASTAL NC AND SC COUNTIES......

CITY           SKY/WX    TMP DP  RH WIND       PRES   REMARKS
WILMINGTON     CLOUDY    34  28  79 N14G23    30.32R WCI  25
SOUTHPORT      CLOUDY    34  31  86 N17G25    30.30R WCI  24
N MYRTLE BEACH CLOUDY    37  32  82 NE10G20   30.30R WCI  30
MYRTLE BEACH   CLOUDY    37  32  81 N18       30.32S WCI  27

......INLAND NC AND SC COUNTIES.......

CITY           SKY/WX    TMP DP  RH WIND       PRES   REMARKS
LUMBERTON      CLOUDY    35 N/A N/A NE15      30.34R WCI  25
ELIZABETHTOWN  CLOUDY    34  28  77 N7G16     30.35R WCI  28
WHITEVILLE     CLOUDY    35  28  77 N6        30.32R WCI  30
FLORENCE       CLOUDY    37  27  67 NE12G22   30.34R WCI  29
DARLINGTON     CLOUDY    36  27  69 NE13      30.36S WCI  27

....................REST OF NORTH CAROLINA......................

.........EASTERN NC.........

CITY           SKY/WX    TMP DP  RH WIND       PRES   REMARKS
CAPE HATTERAS  CLOUDY    30  27  88 N18G35    30.33R WCI  18
JACKSONVILLE   CLOUDY    30  25  80 N17G23    30.33F WCI  18
MOREHEAD CITY  CLOUDY    33  31  92 MISG      30.32R
KENANSVILLE    CLOUDY    31  25  76 N13G26    30.36R WCI  22
NEW BERN       CLOUDY    32  24  72 N17G28    30.36R WCI  21
ELIZABETH CITY CLOUDY    27  20  75 N21G30    30.39R WCI  13

.........CENTRAL NC.........

CITY           SKY/WX    TMP DP  RH WIND       PRES   REMARKS
RALEIGH DURHAM MOCLDY    28  19  69 NE10      30.39S WCI  19
ROCKY MOUNT    CLOUDY    28  21  75 N16       30.40R WCI  16
ROANOKE RAPIDS NOT AVBL
FAYETTEVILLE   CLOUDY    33  25  72 N18       30.35R WCI  22
HOFFMAN        CLOUDY    33  27  79 N13       30.40R WCI  24

.........WESTERN NC.........

CITY           SKY/WX    TMP DP  RH WIND       PRES   REMARKS
CHARLOTTE      PTCLDY    29  18  63 N12       30.37R WCI  19
GREENSBORO     MOCLDY    25  16  68 N8        30.38R WCI  16
HICKORY        NOT AVBL
BOONE          NOT AVBL
ASHEVILLE      NOT AVBL

.....................REST OF SOUTH CAROLINA.....................

.........EASTERN SC.........

CITY           SKY/WX    TMP DP  RH WIND       PRES   REMARKS
CHARLESTON     CLOUDY    40  37  89 NE14      30.29S WCI  32
BEAUFORT MCAS  CLOUDY    41  38  89 N15G22    30.29R
HILTON HEAD    CLOUDY    43  39  87 N10G21    30.29R

.........CENTRAL SC.........

CITY           SKY/WX    TMP DP  RH WIND       PRES   REMARKS
COLUMBIA       CLOUDY    39  31  72 NE12      30.33R WCI  32
ORANGEBURG     CLOUDY    39  30  70 NE16      30.32R WCI  30
SUMTER SHAW    CLOUDY    37  30  78 NE14      30.32R WCI  28

.........WESTERN SC.........

CITY           SKY/WX    TMP DP  RH WIND       PRES   REMARKS
GREENVILLE     NOT AVBL
ROCK HILL      CLOUDY    31  22  69 NE10      30.37R WCI  22
ANDERSON       CLOUDY    36  26  67 NE9       30.34R WCI  29
CLEMSON        NOT AVBL
GREENWOOD      CLOUDY    37  26  64 NE13G18   30.35R WCI  29


...................COASTAL AND OFFSHORE REPORTS..................

................LOCAL PIERS AND NC RESERVE................


STATION/POSITION TIME  SKY/WX   TEMP    WIND        PRES    VSBY
                                AIR SEA DIR/SP/G
                 (UTC)          (F)     (DEG/KT/KT) (MB)    (MI)
JOHNY MRCER PIER 0900               50              1025.5R
NC RESRV MASNBRO 0800                   360/  5     1024.0S
OCEAN CREST PIER 0900            35 46  350/ 11/ 14 1024.8R
SPRINGMAID  PIER 0900            37 48              1026.3R


................COASTAL AND OFFSHORE BUOYS................


STATION/POSITION TIME  SKY/WX   TEMP    WIND        PRES    VSBY
                                AIR SEA DIR/SP/G
                 (UTC)          (F)     (DEG/KT/KT) (MB)    (MI)
DIMNDSHOAL 41025 NOT AVBL
CAPE LOOKOUT     0800                    10/ 21/ 26 1026.0R
ONSLOW BAY 41036 NOT AVBL
5 WRITEBCH 41038 NOT AVBL
MASONBORO  41110 0900               47                N/A
WVE H/P(F/S)=  5/ 6 WND WVE H/P(F/S)=  5/ 6

WILM HARBR 41108 0900               48                N/A
WVE H/P(F/S)=  5/ 4 WND WVE H/P(F/S)=  5/ 4

27WRITEBCH 41037 NOT AVBL
FRYING PAN 41013 0900            44 63   20/ 27/ 33 1024.1R
WVE H/P(F/S)=  9/ 8 WND WVE H/P(F/S)= 10/ 8 SWL H/P/D(F/S/D)=  2/ 10/12

SUNST NRSH 41024 0800            37      20/ 16/ 17   N/A
CAPRS NRSH 41029 0800            41      40/ 21/ 25   N/A
EDISTO     41004 0900            47 68   30/ 29/ 37 1022.5R
WVE H/P(F/S)= 10/ 7 WND WVE H/P(F/S)= 10/ 7



..........OFFSHORE BUOYS BEYOND 100 NM OFFSHORE...........
.....IN A TRIANGLE---HAT TO BERMUDA TO BAHAMAS TO HAT.....


STATION/POSITION TIME  SKY/WX   TEMP    WIND        PRES    VSBY
                                AIR SEA DIR/SP/G
                 (UTC)          (F)     (DEG/KT/KT) (MB)    (MI)
150E HAT   41001 NOT AVBL
W BERMUDA  41048 0759            70 69  210/ 17/ 21 1019.8S
WVE H/P(F/S)=  5/ 8 WND WVE H/P(F/S)=  3/ 6 SWL H/P/D(F/S/D)=  3/280/ 8

ATLANTIC S 41049 0850            73 74  150/  6/  8 1023.5S
WVE H/P(F/S)=  4/ 8 WND WVE H/P(F/S)=  2/ 4 SWL H/P/D(F/S/D)=  3/100/ 8

E BAHAMAS  41046 0829            76 77  100/ 14/ 17 1021.6F
WVE H/P(F/S)=  6/ 7 WND WVE H/P(F/S)=  3/ 5 SWL H/P/D(F/S/D)=  5/ 90/ 7

NE BAHAMAS 41047 0825            73 73  180/  6/  8 1022.2F
WVE H/P(F/S)=  4/10 WND WVE H/P(F/S)=  2/ 4 SWL H/P/D(F/S/D)=  3/110/10

120E CANVRL41010 0900            75 74  210/ 10/ 12 1019.5S
WVE H/P(F/S)=  4/10 WND WVE H/P(F/S)=  2/ 3 SWL H/P/D(F/S/D)=  3/110/10


END



USA.gov is the U.S. government's official web portal to all federal, state and local government web resources and services.